| 
				
				
				
					
						
					 | 
				
				
				
					
					
					Asteroid 2011 LJ20
					
					
					
					
						
					
					
						
							(Preview)
						
						
						
						
							
						
							
								Orbital elements:
2011 LJ20                                                Earth MOID = 0.3085 AU
Epoch 2011 Aug. 27.0 TT = JDT 2455800.5                 MPC
M   6.74924              (2000.0)            P               Q
n   0.21970948     Peri.  208.94007     +0.28543442     +0.68898737
a   2.7200081      Node    85.20413     -0.69902310     +0.62521133
e   0.5300114      Incl.   41.95460     -0.65566294     -0.36661588
P   4.49           H   20.4           G   0... 
							 
							
						 
						
					
				 | 
				
					
						Blobrana
					 | 
				
				
					
						0
					 | 
				
				
				
					
						
					 | 
				
				
					
						
					 | 
				
			
		
			
			
				
				
					
						 
					 | 
				
				
				
					
						 
					 | 
				
				
				
					
					
					Asteroid 2011 LJ19
					
					
					
					
						
					
					
						
							(Preview)
						
						
						
						
							
						
							
								Orbital elements:
2011 LJ19                                           PHA, Earth MOID = 0.0061 AU
Epoch 2011 Aug. 27.0 TT = JDT 2455800.5                 MPC
M 359.86605              (2000.0)            P               Q
n   0.24288090     Peri.   29.87198     +0.83936137     +0.54305897
a   2.5441368      Node   297.21728     -0.50384050     +0.76093988
e   0.6071854      Incl.    1.52409     -0.20400301     +0.35504571
P   4.06           H   2... 
							 
							
						 
						
					
				 | 
				
					
						Blobrana
					 | 
				
				
					
						1
					 | 
				
				
				
					
						
					 | 
				
				
					
						
					 | 
				
			
		
			
			
				
				
					
						 
					 | 
				
				
				
					
						
					 | 
				
				
				
					
					
					Asteroid 2011 LK19
					
					
					
					
						
					
					
						
							(Preview)
						
						
						
						
							
						
							
								Orbital elements:
2011 LK19                                                Earth MOID = 0.1559 AU
Epoch 2011 Aug. 27.0 TT = JDT 2455800.5                 MPC
M  53.49208              (2000.0)            P               Q
n   0.49730825     Peri.  339.37423     -0.53648188     +0.67028674
a   1.5778012      Node   254.57498     -0.68041817     -0.70296866
e   0.2669723      Incl.   32.13392     -0.49921770     +0.23780399
P   1.98           H   22.5... 
							 
							
						 
						
					
				 | 
				
					
						Blobrana
					 | 
				
				
					
						1
					 | 
				
				
				
					
						
					 | 
				
				
					
						
					 | 
				
			
		
			
			
				
				
					
						 
					 | 
				
				
				
					
						
					 | 
				
				
				
					
					
					Asteroid 2011 LD19
					
					
					
					
						
					
					
						
							(Preview)
						
						
						
						
							
						
							
								Orbital elements:
2011 LD19                                                Earth MOID = 0.2969 AU
Epoch 2011 Aug. 27.0 TT = JDT 2455800.5                 MPC
M   4.74740              (2000.0)            P               Q
n   0.35658645     Peri.   62.50037     +0.42654944     -0.11299129
a   1.9695159      Node   287.28837     -0.65348802     +0.64743956
e   0.4329139      Incl.   70.02463     +0.62530711     +0.75369423
P   2.76           H   18.0           G   0... 
							 
							
						 
						
					
				 | 
				
					
						Blobrana
					 | 
				
				
					
						0
					 | 
				
				
				
					
						
					 | 
				
				
					
						
					 | 
				
			
		
			
			
				
				
					
						 
					 | 
				
				
				
					
						
					 | 
				
				
				
					
					
					Asteroid 2011 LA19
					
					
					
					
						
					
					
						
							(Preview)
						
						
						
						
							
						
							
								Orbital elements:
2011 LA19                                                Earth MOID = 0.0808 AU
Epoch 2011 Aug. 27.0 TT = JDT 2455800.5                 MPC
M   5.18447              (2000.0)            P               Q
n   0.20560844     Peri.  201.40340     +0.48991345     +0.80819906
a   2.8429906      Node    99.27588     -0.74404546     +0.58299350
e   0.6219409      Incl.   19.33746     -0.45429194     -0.08326382
P   4.79           H   19.1           G   0... 
							 
							
						 
						
					
				 | 
				
					
						Blobrana
					 | 
				
				
					
						0
					 | 
				
				
				
					
						
					 | 
				
				
					
						
					 | 
				
			
		
			
			
				
				
					
						 
					 | 
				
				
				
					
						
					 | 
				
				
				
					
					
					Asteroid 2011 KF36
					
					
					
					
						
					
					
						
							(Preview)
						
						
						
						
							
						
							
								Orbital elements:
2011 KF36                                                Earth MOID = 0.0570 AU
Epoch 2011 Aug. 27.0 TT = JDT 2455800.5                 MPC
M  11.04401              (2000.0)            P               Q
n   0.31878039     Peri.   80.09550     +0.35073452     +0.90494894
a   2.1223075      Node   213.78472     -0.93454795     +0.35472649
e   0.6496430      Incl.   25.67653     +0.06004515     +0.23502453
P   3.09           H   20.5           G... 
							 
							
						 
						
					
				 | 
				
					
						Blobrana
					 | 
				
				
					
						0
					 | 
				
				
				
					
						
					 | 
				
				
					
						
					 | 
				
			
		
			
			
				
				
					
						 
					 | 
				
				
				
					
						
					 | 
				
				
				
					
					
					Asteroid 2011 LS17
					
					
					
					
						
					
					
						
							(Preview)
						
						
						
						
							
						
							
								Orbital elements:
2011 LS17                                                Earth MOID = 0.0288 AU
Epoch 2011 Aug. 27.0 TT = JDT 2455800.5                 MPC
M   1.83723              (2000.0)            P               Q
n   0.26649634     Peri.  287.13950     +0.89220954     +0.44949939
a   2.3915266      Node    46.17400     -0.38789156     +0.81229934
e   0.6277834      Incl.    3.47519     -0.23130559     +0.37164508
P   3.70           H   22.6           G   0....                     
							 
							
						 
						
					
				 | 
				
					
						Blobrana
					 | 
				
				
					
						0
					 | 
				
				
				
					
						
					 | 
				
				
					
						
					 | 
				
			
		
			
			
				
				
					
						 
					 | 
				
				
				
					
						
					 | 
				
				
				
					
					
					Asteroid 2011 LV10
					
					
					
					
						
					
					
						
							(Preview)
						
						
						
						
							
						
							
								Orbital elements:
2011 LV10                                                Earth MOID = 0.0603 AU
Epoch 2011 Aug. 27.0 TT = JDT 2455800.5                 MPC
M  82.00682              (2000.0)            P               Q
n   0.64472441     Peri.  131.41892     -0.86867751     +0.46804398
a   1.3270480      Node    77.07360     -0.48949225     -0.76064646
e   0.2288724      Incl.    9.58424     -0.07613616     -0.44983530
P   1.53           H   25.1           G   0...                   
							 
							
						 
						
					
				 | 
				
					
						Blobrana
					 | 
				
				
					
						0
					 | 
				
				
				
					
						
					 | 
				
				
					
						
					 | 
				
			
		
			
			
				
				
					
						 
					 | 
				
				
				
					
						
					 | 
				
				
				
					
					
					Asteroid (20461) Dioretsa
					
					
					
					
						
					
					
						
							(Preview)
						
						
						
						
							
						
							
								Asteroid (20461) Dioretsa (1999 LD31) is an asteroid discovered in 1999 notable for its unusual orbit, which is highly eccentric and retrograde. Its name is the word 'asteroid' spelled backwards to reflect this fact. It is one of twenty or so known asteroids in the Solar System that have a retrograd... 
							 
							
						 
						
					
				 | 
				
					
						Blobrana
					 | 
				
				
					
						0
					 | 
				
				
				
					
						
					 | 
				
				
					
						
					 | 
				
			
		
			
			
				
				
					
						 
					 | 
				
				
				
					
						
					 | 
				
				
				
					
					
					Asteroid 2011 LY2
					
					
					
					
						
					
					
						
							(Preview)
						
						
						
						
							
						
							
								Orbital elements:
2011 LY2                                                 Earth MOID = 0.1919 AU
Epoch 2011 Aug. 27.0 TT = JDT 2455800.5                 MPC
M 112.21660              (2000.0)            P               Q
n   0.54982366     Peri.   78.00235     -0.86606932     -0.45401801
a   1.4756627      Node    74.68835     +0.33087114     -0.83436185
e   0.2827516      Incl.   12.53088     +0.37476421     -0.31258272
P   1.79           H   21.1           G   0...                   
							 
							
						 
						
					
				 | 
				
					
						Blobrana
					 | 
				
				
					
						0
					 | 
				
				
				
					
						
					 | 
				
				
					
						
					 | 
				
			
		
			
			
				
				
					
						 
					 | 
				
				
				
					
						
					 | 
				
				
				
					
					
					Asteroid 2011 LZ2
					
					
					
					
						
					
					
						
							(Preview)
						
						
						
						
							
						
							
								Orbital elements:
2011 LZ2                                                 Earth MOID = 0.0023 AU
Epoch 2011 Aug. 27.0 TT = JDT 2455800.5                 MPC
M  73.99839              (2000.0)            P               Q
n   0.61282118     Peri.  318.04772     -0.84585970     +0.52726795
a   1.3727145      Node   253.94364     -0.46434680     -0.80231327
e   0.3010984      Incl.    4.81616     -0.26249460     -0.27978906
P   1.61           H   25.2           G   0...                   
							 
							
						 
						
					
				 | 
				
					
						Blobrana
					 | 
				
				
					
						0
					 | 
				
				
				
					
						
					 | 
				
				
					
						
					 | 
				
			
		
			
			
